| time (UTC) | temp C | wind direction | speed KPH | gust KPH | rain 1hr cm | rain 24hr cm | rain mn cm | humidity % | barometer mb |
| 20260905161356 | 25 | 201 | 1.6 | 1.6 | 0.00 | 0.00 | 0.00 | 61 | 1014.9 |
| 20260905160854 | 24 | 143 | 3.2 | 3.2 | 0.00 | 0.00 | 0.00 | 61 | 1015.1 |
| 20260905160348 | 25 | 93 | 1.6 | 3.2 | 0.00 | 0.00 | 0.00 | 63 | 1015.0 |
| 20260905155843 | 24 | 321 | 6.4 | 11.3 | 0.00 | 0.00 | 0.00 | 61 | 1014.9 |
| 20260905155337 | 24 | 318 | 3.2 | 3.2 | 0.00 | 0.00 | 0.00 | 63 | 1014.9 |
| 20260905154836 | 24 | 21 | 9.7 | 14.5 | 0.00 | 0.00 | 0.00 | 62 | 1015.1 |
| 20260905154332 | 23 | 8 | 6.4 | 9.7 | 0.00 | 0.00 | 0.00 | 62 | 1014.8 |
| 20260905153827 | 23 | 330 | 9.7 | 14.5 | 0.00 | 0.00 | 0.00 | 61 | 1014.9 |
| 20260905153323 | 23 | 215 | 3.2 | 9.7 | 0.00 | 0.00 | 0.00 | 64 | 1015.2 |
| 20260905152818 | 23 | 5 | 4.8 | 4.8 | 0.00 | 0.00 | 0.00 | 66 | 1015.1 |
| 20260905152317 | 23 | 17 | 4.8 | 9.7 | 0.00 | 0.00 | 0.00 | 66 | 1015.0 |
| 20260905151812 | 23 | 22 | 3.2 | 4.8 | 0.00 | 0.00 | 0.00 | 67 | 1015.1 |
| 20260905151307 | 23 | 293 | 6.4 | 9.7 | 0.00 | 0.00 | 0.00 | 67 | 1015.0 |
| 20260905150802 | 23 | 292 | 3.2 | 4.8 | 0.00 | 0.00 | 0.00 | 67 | 1015.1 |
| 20260905150301 | 23 | 334 | 6.4 | 9.7 | 0.00 | 0.00 | 0.00 | 63 | 1015.0 |
| 20260905145758 | 24 | 324 | 8.0 | 9.7 | 0.00 | 0.00 | 0.00 | 64 | 1015.1 |
| 20260905145253 | 23 | 321 | 3.2 | 3.2 | 0.00 | 0.00 | 0.00 | 65 | 1015.1 |
| 20260905144752 | 23 | 280 | 3.2 | 3.2 | 0.00 | 0.00 | 0.00 | 67 | 1014.9 |
| 20260905144248 | 23 | 135 | 1.6 | 1.6 | 0.00 | 0.00 | 0.00 | 66 | 1014.9 |
| 20260905143747 | 23 | 80 | 4.8 | 9.7 | 0.00 | 0.00 | 0.00 | 66 | 1015.1 |
| 20260905143247 | 23 | 355 | 3.2 | 4.8 | 0.00 | 0.00 | 0.00 | 67 | 1015.0 |
| 20260905142745 | 23 | 1 | 6.4 | 12.9 | 0.00 | 0.00 | 0.00 | 65 | 1014.9 |
| 20260905142239 | 23 | 317 | 1.6 | 4.8 | 0.00 | 0.00 | 0.00 | 66 | 1015.1 |
| 20260905141736 | 23 | 15 | 4.8 | 4.8 | 0.00 | 0.00 | 0.00 | 65 | 1014.9 |
| 20260905141231 | 24 | 306 | 3.2 | 4.8 | 0.00 | 0.00 | 0.00 | 66 | 1015.0 |
| 20260905140726 | 23 | 253 | 3.2 | 3.2 | 0.00 | 0.00 | 0.00 | 67 | 1014.9 |
| 20260905140221 | 23 | 156 | 4.8 | 6.4 | 0.00 | 0.00 | 0.00 | 68 | 1015.1 |
| 20260905135715 | 23 | 54 | 8.0 | 11.3 | 0.00 | 0.00 | 0.00 | 68 | 1014.9 |
| 20260905135211 | 23 | 23 | 11.3 | 14.5 | 0.00 | 0.00 | 0.00 | 68 | 1014.9 |
| 20260905134710 | 23 | 9 | 3.2 | 3.2 | 0.00 | 0.00 | 0.00 | 68 | 1015.0 |
| 20260905134210 | 23 | 335 | 8.0 | 9.7 | 0.00 | 0.00 | 0.00 | 68 | 1015.0 |
| 20260905133705 | 23 | 198 | 0.0 | 0.0 | 0.00 | 0.00 | 0.00 | 72 | 1014.8 |
| 20260905133200 | 23 | 326 | 8.0 | 9.7 | 0.00 | 0.00 | 0.00 | 69 | 1014.9 |
| 20260905132658 | 23 | 183 | 3.2 | 3.2 | 0.00 | 0.00 | 0.00 | 69 | 1014.9 |
| 20260905132154 | 23 | 252 | 3.2 | 3.2 | 0.00 | 0.00 | 0.00 | 69 | 1014.9 |
| 20260905131643 | 22 | 177 | 3.2 | 4.8 | 0.00 | 0.00 | 0.00 | 70 | 1015.0 |
| 20260905131138 | 22 | 332 | 6.4 | 9.7 | 0.00 | 0.00 | 0.00 | 70 | 1015.0 |
| 20260905130633 | 22 | 220 | 0.0 | 1.6 | 0.00 | 0.00 | 0.00 | 71 | 1015.1 |
| 20260905130133 | 22 | 192 | 3.2 | 6.4 | 0.00 | 0.00 | 0.00 | 71 | 1015.3 |
| 20260905125627 | 22 | 150 | 0.0 | 1.6 | 0.00 | 0.00 | 0.00 | 72 | 1015.4 |
| 20260905125122 | 22 | 12 | 3.2 | 3.2 | 0.00 | 0.00 | 0.00 | 73 | 1015.4 |
| 20260905124618 | 22 | 307 | 3.2 | 3.2 | 0.00 | 0.00 | 0.00 | 72 | 1015.3 |
| 20260905124109 | 22 | 322 | 3.2 | 4.8 | 0.00 | 0.00 | 0.00 | 72 | 1015.2 |
| 20260905123603 | 21 | 357 | 6.4 | 9.7 | 0.00 | 0.00 | 0.00 | 72 | 1015.3 |
| 20260905123100 | 21 | 298 | 6.4 | 9.7 | 0.00 | 0.00 | 0.00 | 72 | 1015.1 |
| 20260905122554 | 21 | 356 | 1.6 | 3.2 | 0.00 | 0.00 | 0.00 | 74 | 1015.2 |
| 20260905122049 | 21 | 305 | 3.2 | 3.2 | 0.00 | 0.00 | 0.00 | 75 | 1015.4 |
| 20260905121543 | 21 | 254 | 3.2 | 3.2 | 0.00 | 0.00 | 0.00 | 75 | 1015.4 |
| 20260905121038 | 21 | 247 | 9.7 | 11.3 | 0.00 | 0.00 | 0.00 | 74 | 1015.4 |
| 20260905120538 | 21 | 48 | 6.4 | 9.7 | 0.00 | 0.00 | 0.00 | 74 | 1015.4 |
| 20260905120033 | 21 | 18 | 4.8 | 9.7 | 0.00 | 0.00 | 0.00 | 74 | 1015.0 |
| 20260905115532 | 20 | 27 | 3.2 | 11.3 | 0.00 | 0.00 | 0.00 | 75 | 1015.3 |
| 20260905115027 | 20 | 31 | 8.0 | 9.7 | 0.00 | 0.00 | 0.00 | 75 | 1015.2 |
| 20260905114526 | 20 | 2 | 3.2 | 6.4 | 0.00 | 0.00 | 0.00 | 77 | 1015.3 |
| 20260905114026 | 20 | 345 | 3.2 | 4.8 | 0.00 | 0.00 | 0.00 | 77 | 1015.1 |
| 20260905113521 | 20 | 185 | 3.2 | 3.2 | 0.00 | 0.00 | 0.00 | 78 | 1015.1 |
| 20260905113016 | 20 | 271 | 1.6 | 1.6 | 0.00 | 0.00 | 0.00 | 78 | 1014.7 |
| 20260905112511 | 20 | 228 | 0.0 | 0.0 | 0.00 | 0.00 | 0.00 | 78 | 1014.9 |
| 20260905112006 | 20 | 230 | 0.0 | 1.6 | 0.00 | 0.00 | 0.00 | 79 | 1014.8 |
| 20260905111501 | 19 | 219 | 0.0 | 0.0 | 0.00 | 0.00 | 0.00 | 80 | 1014.9 |
| 20260905111000 | 18 | 227 | 0.0 | 0.0 | 0.00 | 0.00 | 0.00 | 81 | 1014.7 |
| 20260905110455 | 18 | 244 | 3.2 | 3.2 | 0.00 | 0.00 | 0.00 | 81 | 1014.7 |
| 20260905105954 | 18 | 348 | 3.2 | 3.2 | 0.00 | 0.00 | 0.00 | 82 | 1014.5 |
| 20260905105449 | 18 | 259 | 1.6 | 1.6 | 0.00 | 0.00 | 0.00 | 82 | 1014.6 |
| 20260905104948 | 18 | 240 | 0.0 | 0.0 | 0.00 | 0.00 | 0.00 | 82 | 1014.4 |
| 20260905104444 | 18 | 332 | 3.2 | 4.8 | 0.00 | 0.00 | 0.00 | 83 | 1014.5 |
| 20260905103939 | 17 | 295 | 3.2 | 3.2 | 0.00 | 0.00 | 0.00 | 84 | 1014.4 |
| 20260905103435 | 17 | 234 | 0.0 | 0.0 | 0.00 | 0.00 | 0.00 | 84 | 1014.3 |
| 20260905102931 | 17 | 231 | 0.0 | 0.0 | 0.00 | 0.00 | 0.00 | 84 | 1014.5 |
| 20260905102427 | 17 | 244 | 0.0 | 0.0 | 0.00 | 0.00 | 0.00 | 84 | 1014.6 |
| 20260905101922 | 17 | 235 | 0.0 | 0.0 | 0.00 | 0.00 | 0.00 | 85 | 1014.5 |
| 20260905101420 | 17 | 237 | 0.0 | 0.0 | 0.00 | 0.00 | 0.00 | 85 | 1014.5 |
| 20260905100915 | 17 | 249 | 1.6 | 1.6 | 0.00 | 0.00 | 0.00 | 85 | 1014.3 |
| 20260905100411 | 17 | 228 | 0.0 | 0.0 | 0.00 | 0.00 | 0.00 | 85 | 1014.2 |
| 20260905095909 | 17 | 232 | 0.0 | 0.0 | 0.00 | 0.00 | 0.00 | 85 | 1014.2 |
| 20260905095358 | 17 | 237 | 0.0 | 0.0 | 0.00 | 0.00 | 0.00 | 85 | 1014.3 |
| 20260905094853 | 17 | 233 | 0.0 | 0.0 | 0.00 | 0.00 | 0.00 | 85 | 1014.3 |
| 20260905094349 | 18 | 221 | 0.0 | 0.0 | 0.00 | 0.00 | 0.00 | 84 | 1014.1 |
| 20260905093847 | 18 | 225 | 0.0 | 0.0 | 0.00 | 0.00 | 0.00 | 84 | 1014.2 |
| 20260905093343 | 18 | 203 | 0.0 | 0.0 | 0.00 | 0.00 | 0.00 | 83 | 1014.3 |
| 20260905092839 | 18 | 199 | 0.0 | 0.0 | 0.00 | 0.00 | 0.00 | 82 | 1014.4 |
| 20260905092339 | 18 | 243 | 0.0 | 1.6 | 0.00 | 0.00 | 0.00 | 81 | 1014.1 |
| 20260905091833 | 18 | 229 | 0.0 | 0.0 | 0.00 | 0.00 | 0.00 | 81 | 1014.3 |
| 20260905091328 | 19 | 243 | 0.0 | 1.6 | 0.00 | 0.00 | 0.00 | 80 | 1014.1 |
| 20260905090826 | 19 | 227 | 0.0 | 0.0 | 0.00 | 0.00 | 0.00 | 80 | 1014.3 |
| 20260905090323 | 19 | 246 | 0.0 | 1.6 | 0.00 | 0.00 | 0.00 | 79 | 1014.2 |
| 20260905085822 | 19 | 244 | 0.0 | 0.0 | 0.00 | 0.00 | 0.00 | 79 | 1014.2 |
| 20260905085322 | 19 | 301 | 3.2 | 4.8 | 0.00 | 0.00 | 0.00 | 79 | 1014.3 |
| 20260905084812 | 19 | 12 | 4.8 | 4.8 | 0.00 | 0.00 | 0.00 | 79 | 1014.1 |
| 20260905084312 | 19 | 235 | 0.0 | 1.6 | 0.00 | 0.00 | 0.00 | 80 | 1014.2 |
| 20260905083807 | 20 | 274 | 0.0 | 0.0 | 0.00 | 0.00 | 0.00 | 80 | 1014.0 |
| 20260905083303 | 20 | 229 | 1.6 | 3.2 | 0.00 | 0.00 | 0.00 | 80 | 1014.1 |
| 20260905082757 | 20 | 230 | 0.0 | 0.0 | 0.00 | 0.00 | 0.00 | 80 | 1014.1 |
| 20260905082253 | 20 | 243 | 0.0 | 0.0 | 0.00 | 0.00 | 0.00 | 79 | 1014.2 |
| 20260905081748 | 20 | 259 | 0.0 | 0.0 | 0.00 | 0.00 | 0.00 | 79 | 1014.2 |
| 20260905081243 | 20 | 265 | 1.6 | 1.6 | 0.00 | 0.00 | 0.00 | 79 | 1014.3 |
| 20260905080742 | 20 | 246 | 0.0 | 1.6 | 0.00 | 0.00 | 0.00 | 79 | 1014.4 |
| 20260905080237 | 20 | 234 | 0.0 | 0.0 | 0.00 | 0.00 | 0.00 | 79 | 1014.4 |
| 20260905075736 | 20 | 242 | 1.6 | 1.6 | 0.00 | 0.00 | 0.00 | 78 | 1014.4 |
| 20260905075235 | 20 | 282 | 1.6 | 3.2 | 0.00 | 0.00 | 0.00 | 78 | 1014.3 |
| 20260905074734 | 20 | 258 | 1.6 | 1.6 | 0.00 | 0.00 | 0.00 | 78 | 1014.2 |
| 20260905074230 | 20 | 220 | 0.0 | 0.0 | 0.00 | 0.00 | 0.00 | 78 | 1014.3 |
| 20260905073726 | 20 | 223 | 0.0 | 0.0 | 0.00 | 0.00 | 0.00 | 78 | 1014.1 |
| 20260905073221 | 20 | 241 | 0.0 | 0.0 | 0.00 | 0.00 | 0.00 | 78 | 1014.3 |
| 20260905072720 | 20 | 235 | 0.0 | 0.0 | 0.00 | 0.00 | 0.00 | 78 | 1014.3 |
| 20260905072216 | 20 | 235 | 0.0 | 0.0 | 0.00 | 0.00 | 0.00 | 78 | 1014.4 |
| 20260905071712 | 20 | 251 | 1.6 | 3.2 | 0.00 | 0.00 | 0.00 | 78 | 1014.3 |
| 20260905071208 | 20 | 228 | 0.0 | 0.0 | 0.00 | 0.00 | 0.00 | 79 | 1014.4 |
| 20260905070703 | 20 | 236 | 0.0 | 0.0 | 0.00 | 0.00 | 0.00 | 78 | 1014.3 |
| 20260905070159 | 20 | 225 | 0.0 | 0.0 | 0.00 | 0.00 | 0.00 | 78 | 1014.2 |
| 20260905065657 | 20 | 213 | 0.0 | 0.0 | 0.00 | 0.00 | 0.00 | 77 | 1014.5 |
| 20260905065152 | 21 | 218 | 0.0 | 0.0 | 0.00 | 0.00 | 0.00 | 77 | 1014.4 |
| 20260905064647 | 21 | 334 | 1.6 | 3.2 | 0.00 | 0.00 | 0.00 | 76 | 1014.3 |
| 20260905064143 | 21 | 241 | 0.0 | 0.0 | 0.00 | 0.00 | 0.00 | 76 | 1014.7 |
| 20260905063641 | 21 | 308 | 1.6 | 1.6 | 0.00 | 0.00 | 0.00 | 75 | 1014.6 |
| 20260905063137 | 21 | 7 | 4.8 | 6.4 | 0.00 | 0.00 | 0.00 | 75 | 1014.6 |
| 20260905062633 | 21 | 305 | 1.6 | 1.6 | 0.00 | 0.00 | 0.00 | 75 | 1014.5 |
| 20260905062132 | 21 | 324 | 1.6 | 1.6 | 0.00 | 0.00 | 0.00 | 76 | 1014.8 |
| 20260905061626 | 20 | 235 | 0.0 | 1.6 | 0.00 | 0.00 | 0.00 | 77 | 1014.5 |
| 20260905061127 | 20 | 299 | 1.6 | 1.6 | 0.00 | 0.00 | 0.00 | 79 | 1014.6 |
| 20260905060622 | 20 | 234 | 0.0 | 0.0 | 0.00 | 0.00 | 0.00 | 80 | 1014.6 |
| 20260905060119 | 20 | 222 | 0.0 | 0.0 | 0.00 | 0.00 | 0.00 | 80 | 1014.7 |
| 20260905055617 | 20 | 212 | 0.0 | 0.0 | 0.00 | 0.00 | 0.00 | 80 | 1014.6 |
| 20260905055112 | 20 | 213 | 0.0 | 0.0 | 0.00 | 0.00 | 0.00 | 80 | 1014.8 |
| 20260905054608 | 20 | 226 | 0.0 | 0.0 | 0.00 | 0.00 | 0.00 | 80 | 1014.8 |
| 20260905054103 | 20 | 226 | 0.0 | 0.0 | 0.00 | 0.00 | 0.00 | 80 | 1015.0 |
| 20260905053602 | 20 | 221 | 0.0 | 0.0 | 0.00 | 0.00 | 0.00 | 80 | 1014.8 |
| 20260905053057 | 20 | 236 | 0.0 | 0.0 | 0.00 | 0.00 | 0.00 | 81 | 1015.0 |
| 20260905052556 | 20 | 233 | 0.0 | 0.0 | 0.00 | 0.00 | 0.00 | 80 | 1014.8 |
| 20260905052046 | 20 | 224 | 0.0 | 0.0 | 0.00 | 0.00 | 0.00 | 80 | 1014.8 |
| 20260905051542 | 20 | 236 | 0.0 | 0.0 | 0.00 | 0.00 | 0.00 | 80 | 1015.1 |
| 20260905051038 | 21 | 224 | 0.0 | 0.0 | 0.00 | 0.00 | 0.00 | 80 | 1015.0 |
| 20260905050534 | 21 | 235 | 0.0 | 0.0 | 0.00 | 0.00 | 0.00 | 79 | 1015.0 |
| 20260905050031 | 21 | 205 | 0.0 | 0.0 | 0.00 | 0.00 | 0.00 | 79 | 1015.0 |
| 20260905045525 | 21 | 204 | 0.0 | 0.0 | 0.00 | 0.00 | 0.00 | 78 | 1015.2 |
| 20260905045020 | 21 | 204 | 0.0 | 0.0 | 0.00 | 0.00 | 0.00 | 78 | 1015.2 |
| 20260905044514 | 21 | 220 | 0.0 | 0.0 | 0.00 | 0.00 | 0.00 | 77 | 1015.4 |
| 20260905044009 | 21 | 221 | 0.0 | 0.0 | 0.00 | 0.00 | 0.00 | 77 | 1015.1 |
| 20260905043508 | 21 | 223 | 0.0 | 0.0 | 0.00 | 0.00 | 0.00 | 77 | 1015.4 |
| 20260905043003 | 21 | 223 | 0.0 | 0.0 | 0.00 | 0.00 | 0.00 | 76 | 1015.3 |
| 20260905042502 | 21 | 226 | 0.0 | 0.0 | 0.00 | 0.00 | 0.00 | 75 | 1015.2 |
| 20260905041952 | 22 | 224 | 0.0 | 0.0 | 0.00 | 0.00 | 0.00 | 75 | 1015.4 |
| 20260905041448 | 22 | 231 | 0.0 | 0.0 | 0.00 | 0.00 | 0.00 | 74 | 1015.3 |
| 20260905040942 | 22 | 274 | 1.6 | 1.6 | 0.00 | 0.00 | 0.00 | 74 | 1015.2 |
| 20260905040436 | 22 | 284 | 3.2 | 4.8 | 0.00 | 0.00 | 0.00 | 74 | 1015.3 |
| 20260905035936 | 22 | 26 | 3.2 | 4.8 | 0.00 | 0.10 | 0.10 | 74 | 1015.3 |
| 20260905035431 | 22 | 308 | 3.2 | 4.8 | 0.00 | 0.10 | 0.10 | 75 | 1015.1 |
| 20260905034928 | 21 | 6 | 1.6 | 3.2 | 0.00 | 0.10 | 0.10 | 76 | 1015.3 |
| 20260905034423 | 21 | 234 | 0.0 | 0.0 | 0.00 | 0.10 | 0.10 | 77 | 1015.4 |
| 20260905033922 | 22 | 271 | 0.0 | 0.0 | 0.00 | 0.10 | 0.10 | 76 | 1015.4 |
| 20260905033417 | 22 | 281 | 1.6 | 1.6 | 0.00 | 0.10 | 0.10 | 76 | 1015.4 |
| 20260905032917 | 22 | 15 | 1.6 | 1.6 | 0.00 | 0.10 | 0.10 | 76 | 1015.4 |
| 20260905032412 | 22 | 242 | 0.0 | 0.0 | 0.00 | 0.10 | 0.10 | 76 | 1015.4 |
| 20260905031906 | 21 | 327 | 1.6 | 1.6 | 0.00 | 0.10 | 0.10 | 76 | 1015.4 |
| 20260905031357 | 22 | 253 | 0.0 | 1.6 | 0.00 | 0.10 | 0.10 | 76 | 1015.5 |
| 20260905030852 | 21 | 255 | 0.0 | 1.6 | 0.00 | 0.10 | 0.10 | 77 | 1015.3 |
| 20260905030348 | 21 | 303 | 1.6 | 3.2 | 0.00 | 0.10 | 0.10 | 77 | 1015.4 |
| 20260905025847 | 21 | 258 | 1.6 | 3.2 | 0.00 | 0.10 | 0.10 | 78 | 1015.2 |
| 20260905025342 | 21 | 234 | 0.0 | 0.0 | 0.00 | 0.10 | 0.10 | 78 | 1015.3 |
| 20260905024838 | 21 | 253 | 0.0 | 1.6 | 0.00 | 0.10 | 0.10 | 78 | 1015.3 |
| 20260905024333 | 21 | 234 | 0.0 | 0.0 | 0.00 | 0.10 | 0.10 | 78 | 1015.0 |
| 20260905023829 | 21 | 229 | 1.6 | 1.6 | 0.00 | 0.10 | 0.10 | 78 | 1015.2 |
| 20260905023324 | 21 | 234 | 0.0 | 0.0 | 0.00 | 0.10 | 0.10 | 78 | 1015.1 |
| 20260905022822 | 21 | 241 | 0.0 | 1.6 | 0.00 | 0.10 | 0.10 | 79 | 1015.2 |
| 20260905022319 | 21 | 233 | 0.0 | 0.0 | 0.00 | 0.10 | 0.10 | 79 | 1015.2 |
| 20260905021818 | 21 | 237 | 0.0 | 0.0 | 0.00 | 0.10 | 0.10 | 79 | 1015.2 |
| 20260905021313 | 21 | 233 | 0.0 | 0.0 | 0.00 | 0.10 | 0.10 | 79 | 1015.2 |
| 20260905020808 | 21 | 260 | 0.0 | 1.6 | 0.00 | 0.10 | 0.10 | 79 | 1015.3 |
| 20260905020303 | 21 | 307 | 1.6 | 3.2 | 0.00 | 0.10 | 0.10 | 80 | 1015.4 |
| 20260905015801 | 21 | 239 | 0.0 | 1.6 | 0.00 | 0.10 | 0.10 | 80 | 1015.4 |
| 20260905015257 | 21 | 257 | 1.6 | 1.6 | 0.00 | 0.10 | 0.10 | 80 | 1015.3 |
| 20260905014755 | 21 | 271 | 0.0 | 1.6 | 0.00 | 0.10 | 0.10 | 79 | 1015.2 |
| 20260905014251 | 21 | 241 | 0.0 | 1.6 | 0.00 | 0.10 | 0.10 | 79 | 1015.2 |
| 20260905013746 | 21 | 233 | 0.0 | 0.0 | 0.00 | 0.10 | 0.10 | 79 | 1015.4 |
| 20260905013237 | 21 | 225 | 0.0 | 0.0 | 0.00 | 0.10 | 0.10 | 77 | 1015.3 |
| 20260905012732 | 22 | 219 | 0.0 | 0.0 | 0.00 | 0.10 | 0.10 | 76 | 1015.4 |
| 20260905012227 | 22 | 221 | 0.0 | 0.0 | 0.00 | 0.10 | 0.10 | 76 | 1015.4 |
| 20260905011725 | 22 | 222 | 0.0 | 0.0 | 0.00 | 0.10 | 0.10 | 74 | 1015.2 |
| 20260905011220 | 22 | 223 | 0.0 | 0.0 | 0.00 | 0.10 | 0.10 | 74 | 1015.4 |
| 20260905010720 | 22 | 228 | 0.0 | 0.0 | 0.00 | 0.10 | 0.10 | 73 | 1015.5 |
| 20260905010215 | 22 | 245 | 0.0 | 0.0 | 0.00 | 0.10 | 0.10 | 73 | 1015.5 |
| 20260905005711 | 22 | 230 | 0.0 | 1.6 | 0.00 | 0.10 | 0.10 | 73 | 1015.5 |
| 20260905005206 | 22 | 239 | 0.0 | 0.0 | 0.00 | 0.10 | 0.10 | 74 | 1015.5 |
| 20260905004701 | 22 | 235 | 0.0 | 0.0 | 0.00 | 0.10 | 0.10 | 74 | 1015.2 |
| 20260905004156 | 22 | 231 | 0.0 | 0.0 | 0.00 | 0.10 | 0.10 | 75 | 1015.3 |
| 20260905003651 | 22 | 244 | 0.0 | 0.0 | 0.00 | 0.10 | 0.10 | 74 | 1015.4 |
| 20260905003147 | 22 | 233 | 0.0 | 0.0 | 0.00 | 0.10 | 0.10 | 74 | 1015.1 |
| 20260905002642 | 23 | 227 | 0.0 | 0.0 | 0.00 | 0.10 | 0.10 | 73 | 1015.1 |
| 20260905002137 | 23 | 224 | 0.0 | 0.0 | 0.00 | 0.10 | 0.10 | 73 | 1015.3 |
| 20260905001633 | 22 | 224 | 0.0 | 0.0 | 0.00 | 0.10 | 0.10 | 75 | 1015.2 |
| 20260905001132 | 22 | 225 | 0.0 | 0.0 | 0.00 | 0.10 | 0.10 | 75 | 1015.2 |
| 20260905000627 | 23 | 222 | 0.0 | 0.0 | 0.00 | 0.10 | 0.10 | 74 | 1014.9 |
| 20260905000123 | 23 | 223 | 0.0 | 0.0 | 0.00 | 0.10 | 0.10 | 74 | 1015.0 |
| 20260904235623 | 23 | 224 | 0.0 | 0.0 | 0.00 | 0.10 | 0.10 | 73 | 1015.2 |
| 20260904235122 | 23 | 228 | 0.0 | 0.0 | 0.00 | 0.10 | 0.10 | 73 | 1015.0 |
| 20260904234617 | 23 | 223 | 0.0 | 0.0 | 0.00 | 0.10 | 0.10 | 71 | 1015.1 |
| 20260904234113 | 24 | 222 | 0.0 | 0.0 | 0.00 | 0.10 | 0.10 | 70 | 1015.1 |
| 20260904233609 | 24 | 223 | 0.0 | 0.0 | 0.00 | 0.10 | 0.10 | 69 | 1015.1 |
| 20260904233104 | 25 | 221 | 0.0 | 0.0 | 0.00 | 0.10 | 0.10 | 68 | 1014.9 |
| 20260904232600 | 25 | 227 | 0.0 | 0.0 | 0.00 | 0.10 | 0.10 | 66 | 1015.1 |
| 20260904232056 | 25 | 224 | 0.0 | 0.0 | 0.00 | 0.10 | 0.10 | 65 | 1014.9 |
| 20260904231552 | 25 | 226 | 0.0 | 0.0 | 0.00 | 0.10 | 0.10 | 64 | 1014.8 |
| 20260904231047 | 26 | 223 | 0.0 | 0.0 | 0.00 | 0.10 | 0.10 | 63 | 1014.7 |
| 20260904230546 | 26 | 268 | 1.6 | 3.2 | 0.00 | 0.10 | 0.10 | 63 | 1014.8 |
| 20260904230042 | 26 | 249 | 1.6 | 1.6 | 0.00 | 0.10 | 0.10 | 63 | 1014.8 |
| 20260904225539 | 26 | 226 | 1.6 | 3.2 | 0.00 | 0.10 | 0.10 | 63 | 1014.7 |
| 20260904225039 | 26 | 220 | 0.0 | 0.0 | 0.00 | 0.10 | 0.10 | 64 | 1014.8 |
| 20260904224534 | 26 | 257 | 4.8 | 4.8 | 0.00 | 0.10 | 0.10 | 62 | 1015.0 |
| 20260904224034 | 26 | 261 | 1.6 | 3.2 | 0.00 | 0.10 | 0.10 | 62 | 1014.9 |
| 20260904223533 | 27 | 240 | 0.0 | 0.0 | 0.00 | 0.10 | 0.10 | 61 | 1014.8 |
| 20260904223029 | 28 | 241 | 1.6 | 1.6 | 0.00 | 0.10 | 0.10 | 59 | 1014.9 |
| 20260904222524 | 28 | 249 | 3.2 | 3.2 | 0.00 | 0.10 | 0.10 | 59 | 1014.9 |
| 20260904222019 | 28 | 276 | 0.0 | 1.6 | 0.00 | 0.10 | 0.10 | 59 | 1014.9 |
| 20260904221514 | 28 | 295 | 0.0 | 1.6 | 0.00 | 0.10 | 0.10 | 58 | 1014.7 |
| 20260904221009 | 27 | 233 | 1.6 | 1.6 | 0.00 | 0.10 | 0.10 | 59 | 1015.0 |
| 20260904220509 | 28 | 235 | 1.6 | 1.6 | 0.00 | 0.10 | 0.10 | 58 | 1014.6 |
| 20260904220005 | 28 | 0 | 4.8 | 6.4 | 0.00 | 0.10 | 0.10 | 57 | 1014.7 |
| 20260904215459 | 28 | 187 | 3.2 | 4.8 | 0.00 | 0.10 | 0.10 | 58 | 1014.6 |
| 20260904214954 | 28 | 275 | 3.2 | 4.8 | 0.00 | 0.10 | 0.10 | 58 | 1014.5 |
| 20260904214450 | 28 | 265 | 1.6 | 3.2 | 0.00 | 0.10 | 0.10 | 58 | 1014.7 |
| 20260904213944 | 28 | 244 | 1.6 | 1.6 | 0.00 | 0.10 | 0.10 | 58 | 1014.7 |
| 20260904213438 | 28 | 257 | 8.0 | 9.7 | 0.00 | 0.10 | 0.10 | 58 | 1014.6 |
| 20260904212935 | 28 | 330 | 4.8 | 4.8 | 0.00 | 0.10 | 0.10 | 57 | 1014.5 |
| 20260904212434 | 28 | 281 | 3.2 | 4.8 | 0.00 | 0.10 | 0.10 | 57 | 1014.5 |
| 20260904211930 | 28 | 321 | 4.8 | 4.8 | 0.00 | 0.10 | 0.10 | 58 | 1014.6 |
| 20260904211429 | 28 | 253 | 0.0 | 0.0 | 0.00 | 0.10 | 0.10 | 58 | 1014.4 |
| 20260904210925 | 28 | 26 | 3.2 | 4.8 | 0.00 | 0.10 | 0.10 | 57 | 1014.5 |
| 20260904210424 | 28 | 343 | 1.6 | 3.2 | 0.00 | 0.10 | 0.10 | 58 | 1014.7 |
| 20260904205920 | 29 | 224 | 3.2 | 4.8 | 0.00 | 0.10 | 0.10 | 55 | 1014.5 |
| 20260904205415 | 29 | 246 | 3.2 | 4.8 | 0.00 | 0.10 | 0.10 | 56 | 1014.6 |
| 20260904204912 | 28 | 304 | 4.8 | 6.4 | 0.00 | 0.10 | 0.10 | 55 | 1014.8 |
| 20260904204408 | 28 | 327 | 3.2 | 4.8 | 0.00 | 0.10 | 0.10 | 56 | 1014.9 |
| 20260904203904 | 28 | 226 | 1.6 | 1.6 | 0.00 | 0.10 | 0.10 | 57 | 1015.0 |
| 20260904203400 | 28 | 337 | 6.4 | 9.7 | 0.00 | 0.10 | 0.10 | 57 | 1015.0 |
| 20260904202856 | 27 | 228 | 4.8 | 6.4 | 0.00 | 0.10 | 0.10 | 57 | 1015.1 |
| 20260904202351 | 28 | 274 | 3.2 | 3.2 | 0.00 | 0.10 | 0.10 | 60 | 1015.0 |
| 20260904201847 | 28 | 308 | 3.2 | 3.2 | 0.00 | 0.10 | 0.10 | 57 | 1014.9 |
| 20260904201342 | 28 | 253 | 1.6 | 1.6 | 0.00 | 0.10 | 0.10 | 56 | 1015.0 |
| 20260904200837 | 28 | 212 | 4.8 | 6.4 | 0.00 | 0.10 | 0.10 | 56 | 1015.0 |
| 20260904200335 | 28 | 237 | 1.6 | 1.6 | 0.00 | 0.10 | 0.10 | 56 | 1015.0 |
| 20260904195830 | 28 | 331 | 1.6 | 3.2 | 0.00 | 0.10 | 0.10 | 56 | 1015.0 |
| 20260904195329 | 29 | 329 | 1.6 | 3.2 | 0.00 | 0.10 | 0.10 | 56 | 1014.9 |
| 20260904194823 | 28 | 284 | 4.8 | 4.8 | 0.00 | 0.10 | 0.10 | 56 | 1014.9 |
| 20260904194323 | 29 | 242 | 4.8 | 6.4 | 0.00 | 0.10 | 0.10 | 58 | 1015.0 |
| 20260904193818 | 29 | 338 | 6.4 | 6.4 | 0.00 | 0.10 | 0.10 | 56 | 1014.8 |
| 20260904193314 | 29 | 246 | 1.6 | 1.6 | 0.00 | 0.10 | 0.10 | 55 | 1014.8 |
| 20260904192809 | 29 | 232 | 1.6 | 3.2 | 0.00 | 0.10 | 0.10 | 56 | 1014.9 |
| 20260904192306 | 29 | 293 | 3.2 | 3.2 | 0.00 | 0.10 | 0.10 | 55 | 1015.1 |
| 20260904191801 | 29 | 299 | 1.6 | 3.2 | 0.00 | 0.10 | 0.10 | 58 | 1015.2 |
| 20260904191257 | 29 | 246 | 3.2 | 3.2 | 0.00 | 0.10 | 0.10 | 55 | 1015.2 |
| 20260904190753 | 28 | 294 | 0.0 | 1.6 | 0.00 | 0.10 | 0.10 | 58 | 1015.2 |
| 20260904190249 | 28 | 352 | 3.2 | 4.8 | 0.00 | 0.10 | 0.10 | 57 | 1015.5 |
| 20260904185745 | 28 | 104 | 0.0 | 0.0 | 0.00 | 0.10 | 0.10 | 60 | 1015.5 |
| 20260904185240 | 28 | 332 | 4.8 | 9.7 | 0.00 | 0.10 | 0.10 | 59 | 1015.7 |
| 20260904184738 | 28 | 294 | 6.4 | 6.4 | 0.00 | 0.10 | 0.10 | 60 | 1015.6 |
| 20260904184235 | 28 | 39 | 1.6 | 3.2 | 0.00 | 0.10 | 0.10 | 60 | 1015.5 |
| 20260904183730 | 28 | 222 | 0.0 | 1.6 | 0.00 | 0.10 | 0.10 | 65 | 1015.5 |
| 20260904183225 | 27 | 19 | 1.6 | 4.8 | 0.00 | 0.10 | 0.10 | 63 | 1015.6 |
| 20260904182720 | 28 | 245 | 1.6 | 3.2 | 0.00 | 0.10 | 0.10 | 61 | 1015.6 |
| 20260904182215 | 28 | 174 | 1.6 | 1.6 | 0.00 | 0.10 | 0.10 | 61 | 1015.7 |
| 20260904181711 | 28 | 315 | 11.3 | 14.5 | 0.00 | 0.10 | 0.10 | 59 | 1015.6 |
| 20260904181210 | 27 | 256 | 4.8 | 4.8 | 0.00 | 0.10 | 0.10 | 61 | 1015.5 |
| 20260904180706 | 27 | 333 | 1.6 | 1.6 | 0.00 | 0.10 | 0.10 | 64 | 1015.7 |
| 20260904180201 | 27 | 302 | 3.2 | 3.2 | 0.00 | 0.10 | 0.10 | 64 | 1015.6 |
| 20260904175700 | 27 | 267 | 1.6 | 1.6 | 0.00 | 0.10 | 0.10 | 65 | 1015.4 |
| 20260904175159 | 27 | 353 | 1.6 | 3.2 | 0.00 | 0.10 | 0.10 | 65 | 1015.6 |
| 20260904174653 | 27 | 32 | 3.2 | 4.8 | 0.00 | 0.10 | 0.10 | 63 | 1015.5 |
| 20260904174149 | 28 | 134 | 0.0 | 1.6 | 0.00 | 0.10 | 0.10 | 64 | 1015.7 |
| 20260904173645 | 28 | 253 | 4.8 | 4.8 | 0.00 | 0.10 | 0.10 | 62 | 1015.5 |
| 20260904173140 | 28 | 249 | 11.3 | 17.7 | 0.00 | 0.10 | 0.10 | 63 | 1015.4 |
| 20260904172637 | 27 | 286 | 3.2 | 4.8 | 0.00 | 0.10 | 0.10 | 64 | 1015.5 |
| 20260904172135 | 27 | 21 | 3.2 | 4.8 | 0.00 | 0.10 | 0.10 | 63 | 1015.4 |
| 20260904171631 | 28 | 126 | 1.6 | 1.6 | 0.00 | 0.10 | 0.10 | 63 | 1015.4 |
| 20260904171126 | 28 | 280 | 3.2 | 4.8 | 0.00 | 0.10 | 0.10 | 63 | 1015.5 |
| 20260904170622 | 28 | 268 | 1.6 | 1.6 | 0.00 | 0.10 | 0.10 | 66 | 1015.5 |
| 20260904170118 | 28 | 327 | 4.8 | 6.4 | 0.00 | 0.10 | 0.10 | 64 | 1015.5 |
| 20260904165616 | 27 | 278 | 1.6 | 3.2 | 0.00 | 0.10 | 0.10 | 68 | 1015.8 |
| 20260904165115 | 27 | 222 | 0.0 | 1.6 | 0.00 | 0.10 | 0.10 | 67 | 1015.8 |
| 20260904164610 | 27 | 331 | 1.6 | 1.6 | 0.00 | 0.10 | 0.10 | 67 | 1015.8 |
| 20260904164106 | 27 | 269 | 1.6 | 3.2 | 0.00 | 0.10 | 0.10 | 67 | 1015.7 |
| 20260904163601 | 27 | 338 | 9.7 | 12.9 | 0.00 | 0.10 | 0.10 | 66 | 1015.5 |
| 20260904163056 | 27 | 170 | 3.2 | 6.4 | 0.00 | 0.10 | 0.10 | 63 | 1015.4 |
| 20260904162556 | 27 | 217 | 6.4 | 9.7 | 0.00 | 0.10 | 0.10 | 62 | 1015.6 |
| 20260904162051 | 27 | 353 | 3.2 | 4.8 | 0.00 | 0.10 | 0.10 | 64 | 1015.7 |
| 20260904161545 | 28 | 21 | 4.8 | 4.8 | 0.00 | 0.10 | 0.10 | 63 | 1015.6 |